Time,TemperatureF,DewpointF,PressureIn,WindDirection,WindDirectionDegrees,WindSpeedMPH,WindSpeedGustMPH,Humidity,HourlyPrecipIn,Conditions,Clouds,dailyrainin,SoftwareType,DateUTC
2013-01-23 00:05:00,8.5,-10.4,30.07,NNW,345,1.0,2.0,41,0.00,,,0.00,Wunderground v.1.15,2013-01-23 05:05:00,
2013-01-23 00:10:00,8.5,-10.4,30.07,North,3,2.0,2.0,41,0.00,,,0.00,Wunderground v.1.15,2013-01-23 05:10:00,
2013-01-23 00:15:00,8.4,-10.5,30.07,NNW,341,1.0,3.0,41,0.00,,,0.00,Wunderground v.1.15,2013-01-23 05:15:00,
2013-01-23 00:20:00,8.2,-10.7,30.07,NNW,340,1.0,4.0,41,0.00,,,0.00,Wunderground v.1.15,2013-01-23 05:20:00,
2013-01-23 00:25:00,8.2,-11.2,30.07,NNW,332,2.0,6.0,40,0.00,,,0.00,Wunderground v.1.15,2013-01-23 05:25:00,
2013-01-23 00:30:00,8.2,-11.2,30.07,NNW,331,3.0,6.0,40,0.00,,,0.00,Wunderground v.1.15,2013-01-23 05:30:00,
2013-01-23 00:35:00,8.2,-11.2,30.07,NNW,345,3.0,3.0,40,0.00,,,0.00,Wunderground v.1.15,2013-01-23 05:35:00,
2013-01-23 00:40:00,8.1,-11.3,30.07,NNW,347,2.0,3.0,40,0.00,,,0.00,Wunderground v.1.15,2013-01-23 05:40:00,
2013-01-23 00:50:00,8.0,-10.9,30.07,NNW,339,3.0,5.0,41,0.00,,,0.00,Wunderground v.1.15,2013-01-23 05:50:00,
2013-01-23 00:55:00,7.8,-11.1,30.07,NNW,340,4.0,6.0,41,0.00,,,0.00,Wunderground v.1.15,2013-01-23 05:55:00,
2013-01-23 01:05:00,7.6,-10.8,30.07,NNW,335,2.0,3.0,42,0.00,,,0.00,Wunderground v.1.15,2013-01-23 06:05:00,
2013-01-23 01:10:00,7.5,-10.8,30.07,NNW,345,2.0,4.0,42,0.00,,,0.00,Wunderground v.1.15,2013-01-23 06:10:00,
2013-01-23 01:15:00,7.3,-10.6,30.07,NNW,343,2.0,4.0,43,0.00,,,0.00,Wunderground v.1.15,2013-01-23 06:15:00,
2013-01-23 01:20:00,7.2,-10.6,30.07,NW,320,2.0,2.0,43,0.00,,,0.00,Wunderground v.1.15,2013-01-23 06:20:00,
2013-01-23 01:30:00,6.9,-10.5,30.08,NW,326,2.0,3.0,44,0.00,,,0.00,Wunderground v.1.15,2013-01-23 06:30:00,
2013-01-23 01:35:00,6.7,-10.6,30.08,NNW,347,3.0,3.0,44,0.00,,,0.00,Wunderground v.1.15,2013-01-23 06:35:00,
2013-01-23 01:40:00,6.6,-10.3,30.08,NNW,334,3.0,3.0,45,0.00,,,0.00,Wunderground v.1.15,2013-01-23 06:40:00,
2013-01-23 01:45:00,6.5,-10.4,30.08,North,349,2.0,3.0,45,0.00,,,0.00,Wunderground v.1.15,2013-01-23 06:45:00,
2013-01-23 01:50:00,6.4,-10.9,30.08,North,8,2.0,2.0,44,0.00,,,0.00,Wunderground v.1.15,2013-01-23 06:50:00,
2013-01-23 01:55:00,6.4,-10.5,30.08,NNW,335,3.0,6.0,45,0.00,,,0.00,Wunderground v.1.15,2013-01-23 06:55:00,
2013-01-23 02:05:00,6.3,-10.1,30.08,NNE,12,2.0,3.0,46,0.00,,,0.00,Wunderground v.1.15,2013-01-23 07:05:00,
2013-01-23 02:10:00,6.2,-10.2,30.08,NNW,337,2.0,2.0,46,0.00,,,0.00,Wunderground v.1.15,2013-01-23 07:10:00,
2013-01-23 02:15:00,6.2,-10.2,30.08,North,351,3.0,3.0,46,0.00,,,0.00,Wunderground v.1.15,2013-01-23 07:15:00,
2013-01-23 02:20:00,6.1,-10.3,30.08,North,351,2.0,2.0,46,0.00,,,0.00,Wunderground v.1.15,2013-01-23 07:20:00,
2013-01-23 02:25:00,6.0,-9.9,30.08,North,11,1.0,2.0,47,0.00,,,0.00,Wunderground v.1.15,2013-01-23 07:25:00,
2013-01-23 02:30:00,5.9,-10.0,30.08,NNW,336,1.0,3.0,47,0.00,,,0.00,Wunderground v.1.15,2013-01-23 07:30:00,
2013-01-23 02:35:00,5.8,-10.1,30.08,NW,310,2.0,6.0,47,0.00,,,0.00,Wunderground v.1.15,2013-01-23 07:35:00,
2013-01-23 02:45:00,5.6,-10.3,30.08,NNW,344,4.0,6.0,47,0.00,,,0.00,Wunderground v.1.15,2013-01-23 07:45:00,
2013-01-23 02:50:00,5.5,-10.0,30.08,NNW,345,4.0,5.0,48,0.00,,,0.00,Wunderground v.1.15,2013-01-23 07:50:00,
2013-01-23 02:55:00,5.4,-10.1,30.08,North,349,4.0,5.0,48,0.00,,,0.00,Wunderground v.1.15,2013-01-23 07:55:00,
2013-01-23 03:05:00,5.1,-10.4,30.08,North,351,2.0,4.0,48,0.00,,,0.00,Wunderground v.1.15,2013-01-23 08:05:00,
2013-01-23 03:10:00,5.0,-10.0,30.08,NE,44,1.0,1.0,49,0.00,,,0.00,Wunderground v.1.15,2013-01-23 08:10:00,
2013-01-23 03:20:00,4.9,-9.7,30.08,North,359,1.0,2.0,50,0.00,,,0.00,Wunderground v.1.15,2013-01-23 08:20:00,
2013-01-23 03:25:00,4.8,-9.8,30.08,NNW,341,1.0,3.0,50,0.00,,,0.00,Wunderground v.1.15,2013-01-23 08:25:00,
2013-01-23 03:30:00,4.8,-10.6,30.08,NNW,331,2.0,4.0,48,0.00,,,0.00,Wunderground v.1.15,2013-01-23 08:30:00,
2013-01-23 03:35:00,4.8,-10.2,30.08,NNW,335,3.0,5.0,49,0.00,,,0.00,Wunderground v.1.15,2013-01-23 08:35:00,
2013-01-23 03:40:00,4.7,-10.3,30.08,NW,324,3.0,3.0,49,0.00,,,0.00,Wunderground v.1.15,2013-01-23 08:40:00,
2013-01-23 03:45:00,4.6,-10.4,30.08,NNW,335,3.0,3.0,49,0.00,,,0.00,Wunderground v.1.15,2013-01-23 08:45:00,
2013-01-23 03:55:00,4.4,-10.6,30.08,North,10,1.0,2.0,49,0.00,,,0.00,Wunderground v.1.15,2013-01-23 08:55:00,
2013-01-23 04:00:00,4.3,-10.3,30.08,North,359,1.0,1.0,50,0.00,,,0.00,Wunderground v.1.15,2013-01-23 09:00:00,
2013-01-23 04:10:00,4.2,-10.0,30.09,NNE,14,0.0,0.0,51,0.00,,,0.00,Wunderground v.1.15,2013-01-23 09:10:00,
2013-01-23 04:15:00,4.0,-10.1,30.09,North,355,0.0,0.0,51,0.00,,,0.00,Wunderground v.1.15,2013-01-23 09:15:00,
2013-01-23 04:20:00,3.8,-10.3,30.08,North,5,0.0,3.0,51,0.00,,,0.00,Wunderground v.1.15,2013-01-23 09:20:00,
2013-01-23 04:25:00,3.6,-10.1,30.09,NNE,18,1.0,3.0,52,0.00,,,0.00,Wunderground v.1.15,2013-01-23 09:25:00,
2013-01-23 04:35:00,3.5,-10.2,30.09,NNE,15,0.0,1.0,52,0.00,,,0.00,Wunderground v.1.15,2013-01-23 09:35:00,
2013-01-23 04:40:00,3.5,-10.2,30.09,NNE,16,0.0,2.0,52,0.00,,,0.00,Wunderground v.1.15,2013-01-23 09:40:00,
2013-01-23 04:45:00,3.5,-10.6,30.09,North,350,1.0,2.0,51,0.00,,,0.00,Wunderground v.1.15,2013-01-23 09:45:00,
2013-01-23 04:50:00,3.6,-10.5,30.09,North,351,1.0,1.0,51,0.00,,,0.00,Wunderground v.1.15,2013-01-23 09:50:00,
2013-01-23 04:55:00,3.6,-10.5,30.09,North,354,1.0,4.0,51,0.00,,,0.00,Wunderground v.1.15,2013-01-23 09:55:00,
2013-01-23 05:00:00,3.6,-10.5,30.10,North,349,1.0,1.0,51,0.00,,,0.00,Wunderground v.1.15,2013-01-23 10:00:00,
2013-01-23 05:05:00,3.5,-11.0,30.10,NNW,341,2.0,2.0,50,0.00,,,0.00,Wunderground v.1.15,2013-01-23 10:05:00,
2013-01-23 05:10:00,3.3,-10.8,30.10,NNE,30,2.0,2.0,51,0.00,,,0.00,Wunderground v.1.15,2013-01-23 10:10:00,
2013-01-23 05:15:00,3.3,-10.8,30.10,NNW,347,1.0,3.0,51,0.00,,,0.00,Wunderground v.1.15,2013-01-23 10:15:00,
2013-01-23 05:25:00,3.0,-10.7,30.10,North,350,2.0,2.0,52,0.00,,,0.00,Wunderground v.1.15,2013-01-23 10:25:00,
2013-01-23 05:30:00,2.9,-10.8,30.10,NNW,334,1.0,3.0,52,0.00,,,0.00,Wunderground v.1.15,2013-01-23 10:30:00,
2013-01-23 05:35:00,2.9,-10.4,30.10,NNW,347,2.0,3.0,53,0.00,,,0.00,Wunderground v.1.15,2013-01-23 10:35:00,
2013-01-23 05:40:00,2.7,-10.6,30.10,NNW,347,1.0,1.0,53,0.00,,,0.00,Wunderground v.1.15,2013-01-23 10:40:00,
2013-01-23 05:45:00,2.6,-10.7,30.10,NNW,337,1.0,1.0,53,0.00,,,0.00,Wunderground v.1.15,2013-01-23 10:45:00,
2013-01-23 05:50:00,2.5,-10.4,30.11,NNW,337,1.0,1.0,54,0.00,,,0.00,Wunderground v.1.15,2013-01-23 10:50:00,
2013-01-23 05:55:00,2.5,-10.4,30.11,NNW,341,0.0,4.0,54,0.00,,,0.00,Wunderground v.1.15,2013-01-23 10:55:00,
2013-01-23 06:00:00,2.4,-10.5,30.11,NW,315,1.0,1.0,54,0.00,,,0.00,Wunderground v.1.15,2013-01-23 11:00:00,
2013-01-23 06:05:00,2.2,-11.0,30.11,NNW,336,3.0,3.0,53,0.00,,,0.00,Wunderground v.1.15,2013-01-23 11:05:00,
2013-01-23 06:10:00,2.1,-11.1,30.11,NNW,332,3.0,3.0,53,0.00,,,0.00,Wunderground v.1.15,2013-01-23 11:10:00,
2013-01-23 06:15:00,2.1,-11.1,30.11,NNW,335,4.0,5.0,53,0.00,,,0.00,Wunderground v.1.15,2013-01-23 11:15:00,
2013-01-23 06:25:00,1.8,-11.4,30.11,NNW,333,4.0,4.0,53,0.00,,,0.00,Wunderground v.1.15,2013-01-23 11:25:00,
2013-01-23 06:30:00,1.7,-11.5,30.11,NNW,334,5.0,5.0,53,0.00,,,0.00,Wunderground v.1.15,2013-01-23 11:30:00,
2013-01-23 06:40:00,1.4,-11.4,30.11,NNW,335,4.0,4.0,54,0.00,,,0.00,Wunderground v.1.15,2013-01-23 11:40:00,
2013-01-23 06:45:00,1.3,-11.1,30.11,NNE,16,4.0,4.0,55,0.00,,,0.00,Wunderground v.1.15,2013-01-23 11:45:00,
2013-01-23 06:50:00,1.1,-11.3,30.11,NNW,331,3.0,5.0,55,0.00,,,0.00,Wunderground v.1.15,2013-01-23 11:50:00,
2013-01-23 07:00:00,1.0,-11.8,30.12,NNW,341,3.0,3.0,54,0.00,,,0.00,Wunderground v.1.15,2013-01-23 12:00:00,
2013-01-23 07:05:00,0.9,-11.9,30.12,NNW,332,3.0,4.0,54,0.00,,,0.00,Wunderground v.1.15,2013-01-23 12:05:00,
2013-01-23 07:10:00,0.8,-12.4,30.12,NNW,331,4.0,4.0,53,0.00,,,0.00,Wunderground v.1.15,2013-01-23 12:10:00,
2013-01-23 07:15:00,0.8,-12.4,30.12,North,6,3.0,4.0,53,0.00,,,0.00,Wunderground v.1.15,2013-01-23 12:15:00,
2013-01-23 07:20:00,0.7,-12.5,30.12,NNW,330,2.0,2.0,53,0.00,,,0.00,Wunderground v.1.15,2013-01-23 12:20:00,
2013-01-23 07:25:00,0.7,-12.8,30.12,NW,325,1.0,2.0,52,0.00,,,0.00,Wunderground v.1.15,2013-01-23 12:25:00,
2013-01-23 07:35:00,0.9,-12.6,30.13,NW,310,1.0,2.0,52,0.00,,,0.00,Wunderground v.1.15,2013-01-23 12:35:00,
2013-01-23 07:40:00,1.0,-12.9,30.13,NNE,16,2.0,2.0,51,0.00,,,0.00,Wunderground v.1.15,2013-01-23 12:40:00,
2013-01-23 07:45:00,0.9,-13.0,30.13,NNW,343,4.0,4.0,51,0.00,,,0.00,Wunderground v.1.15,2013-01-23 12:45:00,
2013-01-23 07:55:00,1.0,-12.9,30.13,WNW,286,4.0,5.0,51,0.00,,,0.00,Wunderground v.1.15,2013-01-23 12:55:00,
2013-01-23 08:00:00,1.1,-13.2,30.13,NNW,337,4.0,6.0,50,0.00,,,0.00,Wunderground v.1.15,2013-01-23 13:00:00,
2013-01-23 08:05:00,1.2,-13.6,30.13,NW,320,4.0,6.0,49,0.00,,,0.00,Wunderground v.1.15,2013-01-23 13:05:00,
2013-01-23 08:15:00,1.2,-13.6,30.13,NNW,328,4.0,4.0,49,0.00,,,0.00,Wunderground v.1.15,2013-01-23 13:15:00,
2013-01-23 08:20:00,1.3,-13.9,30.13,NNW,341,5.0,6.0,48,0.00,,,0.00,Wunderground v.1.15,2013-01-23 13:20:00,
2013-01-23 08:30:00,1.6,-14.0,30.13,NNW,342,4.0,4.0,47,0.00,,,0.00,Wunderground v.1.15,2013-01-23 13:30:00,
2013-01-23 08:35:00,1.6,-14.4,30.13,NNW,335,4.0,4.0,46,0.00,,,0.00,Wunderground v.1.15,2013-01-23 13:35:00,
2013-01-23 08:40:00,1.6,-14.9,30.14,East,79,5.0,5.0,45,0.00,,,0.00,Wunderground v.1.15,2013-01-23 13:40:00,
2013-01-23 08:45:00,1.7,-14.8,30.14,North,350,5.0,5.0,45,0.00,,,0.00,Wunderground v.1.15,2013-01-23 13:45:00,
2013-01-23 08:55:00,1.8,-15.1,30.14,NW,320,4.0,7.0,44,0.00,,,0.00,Wunderground v.1.15,2013-01-23 13:55:00,
2013-01-23 09:00:00,1.9,-14.6,30.13,NNW,347,5.0,5.0,45,0.00,,,0.00,Wunderground v.1.15,2013-01-23 14:00:00,
2013-01-23 09:05:00,2.3,-14.2,30.13,North,351,4.0,5.0,45,0.00,,,0.00,Wunderground v.1.15,2013-01-23 14:05:00,
2013-01-23 09:10:00,2.2,-14.8,30.13,North,353,4.0,4.0,44,0.00,,,0.00,Wunderground v.1.15,2013-01-23 14:10:00,
2013-01-23 09:15:00,2.2,-15.2,30.13,NW,320,5.0,7.0,43,0.00,,,0.00,Wunderground v.1.15,2013-01-23 14:15:00,
2013-01-23 09:25:00,2.1,-15.8,30.14,NW,315,5.0,8.0,42,0.00,,,0.00,Wunderground v.1.15,2013-01-23 14:25:00,
2013-01-23 09:30:00,2.1,-15.8,30.14,North,353,6.0,6.0,42,0.00,,,0.00,Wunderground v.1.15,2013-01-23 14:30:00,
2013-01-23 09:40:00,2.3,-16.1,30.14,NNW,328,5.0,12.0,41,0.00,,,0.00,Wunderground v.1.15,2013-01-23 14:40:00,
2013-01-23 09:45:00,2.3,-16.1,30.14,NE,43,6.0,12.0,41,0.00,,,0.00,Wunderground v.1.15,2013-01-23 14:45:00,
2013-01-23 09:50:00,2.6,-15.8,30.14,NNE,20,5.0,5.0,41,0.00,,,0.00,Wunderground v.1.15,2013-01-23 14:50:00,
2013-01-23 09:55:00,3.0,-15.4,30.14,NNW,347,4.0,8.0,41,0.00,,,0.00,Wunderground v.1.15,2013-01-23 14:55:00,
2013-01-23 10:05:00,2.7,-16.2,30.14,NNE,14,5.0,6.0,40,0.00,,,0.00,Wunderground v.1.15,2013-01-23 15:05:00,
2013-01-23 10:10:00,2.5,-16.4,30.14,North,355,7.0,7.0,40,0.00,,,0.00,Wunderground v.1.15,2013-01-23 15:10:00,
2013-01-23 10:15:00,2.6,-16.3,30.14,North,4,6.0,9.0,40,0.00,,,0.00,Wunderground v.1.15,2013-01-23 15:15:00,
2013-01-23 10:20:00,2.6,-16.3,30.14,NNW,330,6.0,6.0,40,0.00,,,0.00,Wunderground v.1.15,2013-01-23 15:20:00,
2013-01-23 10:25:00,2.7,-16.2,30.14,NW,324,6.0,6.0,40,0.00,,,0.00,Wunderground v.1.15,2013-01-23 15:25:00,
2013-01-23 10:30:00,2.7,-16.2,30.13,NW,310,6.0,10.0,40,0.00,,,0.00,Wunderground v.1.15,2013-01-23 15:30:00,
2013-01-23 10:40:00,2.9,-16.5,30.13,NW,320,7.0,14.0,39,0.00,,,0.00,Wunderground v.1.15,2013-01-23 15:40:00,
2013-01-23 10:45:00,3.1,-15.8,30.12,NNE,26,7.0,14.0,40,0.00,,,0.00,Wunderground v.1.15,2013-01-23 15:45:00,
2013-01-23 10:50:00,3.5,-15.0,30.12,NW,320,6.0,7.0,41,0.00,,,0.00,Wunderground v.1.15,2013-01-23 15:50:00,
2013-01-23 11:00:00,3.4,-16.1,30.12,NNW,327,8.0,8.0,39,0.00,,,0.00,Wunderground v.1.15,2013-01-23 16:00:00,
2013-01-23 11:05:00,3.8,-15.7,30.12,NE,41,6.0,8.0,39,0.00,,,0.00,Wunderground v.1.15,2013-01-23 16:05:00,
2013-01-23 11:10:00,4.1,-15.9,30.12,NNW,328,5.0,9.0,38,0.00,,,0.00,Wunderground v.1.15,2013-01-23 16:10:00,
2013-01-23 11:20:00,3.8,-16.2,30.12,NNW,337,6.0,6.0,38,0.00,,,0.00,Wunderground v.1.15,2013-01-23 16:20:00,
2013-01-23 11:25:00,4.0,-16.0,30.11,NNW,327,5.0,8.0,38,0.00,,,0.00,Wunderground v.1.15,2013-01-23 16:25:00,
2013-01-23 11:30:00,4.3,-15.8,30.11,NW,315,5.0,5.0,38,0.00,,,0.00,Wunderground v.1.15,2013-01-23 16:30:00,
2013-01-23 11:35:00,4.2,-15.8,30.10,NNW,344,6.0,7.0,38,0.00,,,0.00,Wunderground v.1.15,2013-01-23 16:35:00,
2013-01-23 11:40:00,4.2,-15.8,30.10,NW,315,6.0,6.0,38,0.00,,,0.00,Wunderground v.1.15,2013-01-23 16:40:00,
2013-01-23 11:45:00,4.4,-15.2,30.10,North,354,7.0,7.0,39,0.00,,,0.00,Wunderground v.1.15,2013-01-23 16:45:00,
2013-01-23 11:55:00,4.3,-15.2,30.10,NNW,348,6.0,10.0,39,0.00,,,0.00,Wunderground v.1.15,2013-01-23 16:55:00,
2013-01-23 12:00:00,4.3,-15.2,30.09,North,349,8.0,8.0,39,0.00,,,0.00,Wunderground v.1.15,2013-01-23 17:00:00,
2013-01-23 12:05:00,4.3,-15.8,30.09,NW,320,7.0,8.0,38,0.00,,,0.00,Wunderground v.1.15,2013-01-23 17:05:00,
2013-01-23 12:10:00,4.5,-15.6,30.10,NNE,16,6.0,8.0,38,0.00,,,0.00,Wunderground v.1.15,2013-01-23 17:10:00,
2013-01-23 12:15:00,4.4,-15.7,30.09,NNW,327,6.0,8.0,38,0.00,,,0.00,Wunderground v.1.15,2013-01-23 17:15:00,
2013-01-23 12:20:00,4.4,-15.2,30.09,NNE,21,6.0,6.0,39,0.00,,,0.00,Wunderground v.1.15,2013-01-23 17:20:00,
2013-01-23 12:30:00,4.6,-15.5,30.09,NE,43,5.0,13.0,38,0.00,,,0.00,Wunderground v.1.15,2013-01-23 17:30:00,
2013-01-23 12:40:00,5.0,-14.6,30.09,NW,320,7.0,10.0,39,0.00,,,0.00,Wunderground v.1.15,2013-01-23 17:40:00,
2013-01-23 12:45:00,5.1,-14.5,30.08,NNE,28,6.0,10.0,39,0.00,,,0.00,Wunderground v.1.15,2013-01-23 17:45:00,
2013-01-23 12:50:00,5.2,-14.4,30.08,North,349,6.0,6.0,39,0.00,,,0.00,Wunderground v.1.15,2013-01-23 17:50:00,
2013-01-23 12:55:00,5.5,-14.2,30.08,NW,326,6.0,8.0,39,0.00,,,0.00,Wunderground v.1.15,2013-01-23 17:55:00,
2013-01-23 13:00:00,5.5,-14.2,30.08,NNW,329,6.0,7.0,39,0.00,,,0.00,Wunderground v.1.15,2013-01-23 18:00:00,
2013-01-23 13:05:00,6.0,-13.2,30.08,NNW,329,5.0,7.0,40,0.00,,,0.00,Wunderground v.1.15,2013-01-23 18:05:00,
2013-01-23 13:10:00,5.7,-15.0,30.08,NE,51,5.0,5.0,37,0.00,,,0.00,Wunderground v.1.15,2013-01-23 18:10:00,
2013-01-23 13:15:00,5.7,-15.0,30.08,NNW,332,6.0,9.0,37,0.00,,,0.00,Wunderground v.1.15,2013-01-23 18:15:00,
2013-01-23 13:20:00,5.8,-14.4,30.09,NW,326,6.0,11.0,38,0.00,,,0.00,Wunderground v.1.15,2013-01-23 18:20:00,
2013-01-23 13:25:00,5.7,-14.5,30.09,NNW,334,6.0,11.0,38,0.00,,,0.00,Wunderground v.1.15,2013-01-23 18:25:00,
2013-01-23 13:30:00,5.8,-14.4,30.08,NNW,334,7.0,8.0,38,0.00,,,0.00,Wunderground v.1.15,2013-01-23 18:30:00,
2013-01-23 13:40:00,6.3,-13.9,30.09,NW,315,6.0,6.0,38,0.00,,,0.00,Wunderground v.1.15,2013-01-23 18:40:00,
2013-01-23 13:45:00,6.2,-14.6,30.09,NW,320,6.0,6.0,37,0.00,,,0.00,Wunderground v.1.15,2013-01-23 18:45:00,
2013-01-23 13:50:00,6.4,-14.4,30.08,NNW,330,6.0,12.0,37,0.00,,,0.00,Wunderground v.1.15,2013-01-23 18:50:00,
2013-01-23 14:00:00,6.4,-14.4,30.08,NNE,33,5.0,5.0,37,0.00,,,0.00,Wunderground v.1.15,2013-01-23 19:00:00,
2013-01-23 14:05:00,6.6,-14.2,30.08,NE,41,5.0,5.0,37,0.00,,,0.00,Wunderground v.1.15,2013-01-23 19:05:00,
2013-01-23 14:10:00,6.5,-14.3,30.09,NNW,347,6.0,6.0,37,0.00,,,0.00,Wunderground v.1.15,2013-01-23 19:10:00,
2013-01-23 14:15:00,6.5,-14.8,30.09,NW,326,6.0,9.0,36,0.00,,,0.00,Wunderground v.1.15,2013-01-23 19:15:00,
2013-01-23 14:25:00,6.7,-14.7,30.08,North,1,5.0,6.0,36,0.00,,,0.00,Wunderground v.1.15,2013-01-23 19:25:00,
2013-01-23 14:30:00,6.8,-14.6,30.09,NNW,335,6.0,6.0,36,0.00,,,0.00,Wunderground v.1.15,2013-01-23 19:30:00,
2013-01-23 14:35:00,6.7,-14.7,30.09,WNW,299,6.0,6.0,36,0.00,,,0.00,Wunderground v.1.15,2013-01-23 19:35:00,
2013-01-23 14:40:00,6.8,-15.1,30.09,NW,326,6.0,6.0,35,0.00,,,0.00,Wunderground v.1.15,2013-01-23 19:40:00,
2013-01-23 14:45:00,6.8,-15.1,30.09,NW,310,6.0,8.0,35,0.00,,,0.00,Wunderground v.1.15,2013-01-23 19:45:00,
2013-01-23 14:55:00,7.1,-14.9,30.09,NNE,15,6.0,6.0,35,0.00,,,0.00,Wunderground v.1.15,2013-01-23 19:55:00,
2013-01-23 15:00:00,7.1,-14.9,30.09,North,3,5.0,5.0,35,0.00,,,0.00,Wunderground v.1.15,2013-01-23 20:00:00,
2013-01-23 15:10:00,6.9,-15.6,30.09,NNW,332,5.0,5.0,34,0.00,,,0.00,Wunderground v.1.15,2013-01-23 20:10:00,
2013-01-23 15:15:00,6.8,-15.1,30.09,NNW,337,5.0,5.0,35,0.00,,,0.00,Wunderground v.1.15,2013-01-23 20:15:00,
2013-01-23 15:20:00,6.7,-15.2,30.09,NNW,334,7.0,7.0,35,0.00,,,0.00,Wunderground v.1.15,2013-01-23 20:20:00,
2013-01-23 15:25:00,6.9,-15.0,30.09,NNW,337,7.0,12.0,35,0.00,,,0.00,Wunderground v.1.15,2013-01-23 20:25:00,
2013-01-23 15:35:00,7.1,-15.4,30.09,NNW,334,5.0,7.0,34,0.00,,,0.00,Wunderground v.1.15,2013-01-23 20:35:00,
2013-01-23 15:40:00,7.1,-15.4,30.09,NW,326,4.0,5.0,34,0.00,,,0.00,Wunderground v.1.15,2013-01-23 20:40:00,
2013-01-23 15:45:00,7.1,-15.4,30.09,NNW,340,4.0,5.0,34,0.00,,,0.00,Wunderground v.1.15,2013-01-23 20:45:00,
2013-01-23 15:50:00,7.2,-14.8,30.09,NNW,334,3.0,3.0,35,0.00,,,0.00,Wunderground v.1.15,2013-01-23 20:50:00,
2013-01-23 15:55:00,7.2,-14.8,30.09,NNW,330,3.0,4.0,35,0.00,,,0.00,Wunderground v.1.15,2013-01-23 20:55:00,
2013-01-23 16:00:00,6.9,-15.0,30.09,NNW,336,4.0,4.0,35,0.00,,,0.00,Wunderground v.1.15,2013-01-23 21:00:00,
2013-01-23 16:05:00,6.6,-15.9,30.10,NW,315,6.0,11.0,34,0.00,,,0.00,Wunderground v.1.15,2013-01-23 21:05:00,
2013-01-23 16:15:00,6.4,-15.5,30.09,North,349,6.0,8.0,35,0.00,,,0.00,Wunderground v.1.15,2013-01-23 21:15:00,
2013-01-23 16:25:00,6.2,-15.7,30.10,NW,320,6.0,11.0,35,0.00,,,0.00,Wunderground v.1.15,2013-01-23 21:25:00,
2013-01-23 16:30:00,6.1,-15.8,30.10,NW,320,6.0,6.0,35,0.00,,,0.00,Wunderground v.1.15,2013-01-23 21:30:00,
2013-01-23 16:35:00,5.9,-15.4,30.09,NNW,328,6.0,6.0,36,0.00,,,0.00,Wunderground v.1.15,2013-01-23 21:35:00,
2013-01-23 16:40:00,5.8,-15.5,30.09,NNW,329,6.0,6.0,36,0.00,,,0.00,Wunderground v.1.15,2013-01-23 21:40:00,
2013-01-23 16:50:00,5.6,-15.6,30.09,NW,320,6.0,6.0,36,0.00,,,0.00,Wunderground v.1.15,2013-01-23 21:50:00,
2013-01-23 16:55:00,5.6,-15.1,30.09,NNW,334,6.0,6.0,37,0.00,,,0.00,Wunderground v.1.15,2013-01-23 21:55:00,
2013-01-23 17:00:00,5.5,-15.2,30.09,NW,325,5.0,5.0,37,0.00,,,0.00,Wunderground v.1.15,2013-01-23 22:00:00,
2013-01-23 17:05:00,5.3,-15.4,30.10,NNW,334,4.0,5.0,37,0.00,,,0.00,Wunderground v.1.15,2013-01-23 22:05:00,
2013-01-23 17:10:00,5.2,-15.5,30.10,NNW,335,3.0,3.0,37,0.00,,,0.00,Wunderground v.1.15,2013-01-23 22:10:00,
2013-01-23 17:20:00,5.0,-15.1,30.11,NNW,345,2.0,2.0,38,0.00,,,0.00,Wunderground v.1.15,2013-01-23 22:20:00,
2013-01-23 17:30:00,4.9,-14.7,30.11,NNE,20,1.0,1.0,39,0.00,,,0.00,Wunderground v.1.15,2013-01-23 22:30:00,
2013-01-23 17:35:00,4.9,-14.7,30.11,NW,310,1.0,5.0,39,0.00,,,0.00,Wunderground v.1.15,2013-01-23 22:35:00,
2013-01-23 17:40:00,4.8,-14.8,30.11,NNW,330,2.0,3.0,39,0.00,,,0.00,Wunderground v.1.15,2013-01-23 22:40:00,
2013-01-23 17:45:00,4.8,-14.3,30.11,NNW,340,4.0,5.0,40,0.00,,,0.00,Wunderground v.1.15,2013-01-23 22:45:00,
2013-01-23 17:50:00,4.7,-14.4,30.11,NNW,332,4.0,4.0,40,0.00,,,0.00,Wunderground v.1.15,2013-01-23 22:50:00,
2013-01-23 17:55:00,4.6,-14.5,30.11,NNW,339,4.0,4.0,40,0.00,,,0.00,Wunderground v.1.15,2013-01-23 22:55:00,
2013-01-23 18:05:00,4.4,-14.6,30.11,NNW,334,3.0,5.0,40,0.00,,,0.00,Wunderground v.1.15,2013-01-23 23:05:00,
2013-01-23 18:15:00,4.2,-14.8,30.12,NNW,340,2.0,3.0,40,0.00,,,0.00,Wunderground v.1.15,2013-01-23 23:15:00,
2013-01-23 18:20:00,4.2,-14.8,30.11,North,1,3.0,3.0,40,0.00,,,0.00,Wunderground v.1.15,2013-01-23 23:20:00,
2013-01-23 18:25:00,4.2,-14.3,30.11,NNW,345,3.0,3.0,41,0.00,,,0.00,Wunderground v.1.15,2013-01-23 23:25:00,
2013-01-23 18:30:00,4.2,-14.8,30.12,NNE,17,3.0,3.0,40,0.00,,,0.00,Wunderground v.1.15,2013-01-23 23:30:00,
2013-01-23 18:35:00,4.1,-14.4,30.12,NNW,337,1.0,3.0,41,0.00,,,0.00,Wunderground v.1.15,2013-01-23 23:35:00,
2013-01-23 18:45:00,4.0,-14.5,30.13,North,1,1.0,2.0,41,0.00,,,0.00,Wunderground v.1.15,2013-01-23 23:45:00,
2013-01-23 18:50:00,3.9,-14.6,30.12,NNW,347,2.0,2.0,41,0.00,,,0.00,Wunderground v.1.15,2013-01-23 23:50:00,
2013-01-23 18:55:00,3.8,-14.2,30.12,NW,310,2.0,6.0,42,0.00,,,0.00,Wunderground v.1.15,2013-01-23 23:55:00,
2013-01-23 19:00:00,3.7,-14.8,30.13,NNW,337,3.0,6.0,41,0.00,,,0.00,Wunderground v.1.15,2013-01-24 00:00:00,
2013-01-23 19:05:00,3.6,-14.9,30.13,NNW,343,4.0,6.0,41,0.00,,,0.00,Wunderground v.1.15,2013-01-24 00:05:00,
2013-01-23 19:10:00,3.5,-14.5,30.13,NNW,334,4.0,7.0,42,0.00,,,0.00,Wunderground v.1.15,2013-01-24 00:10:00,
2013-01-23 19:20:00,3.5,-15.0,30.13,NNW,329,5.0,5.0,41,0.00,,,0.00,Wunderground v.1.15,2013-01-24 00:20:00,
2013-01-23 19:25:00,3.4,-15.6,30.13,NNW,330,6.0,6.0,40,0.00,,,0.00,Wunderground v.1.15,2013-01-24 00:25:00,
2013-01-23 19:30:00,3.4,-15.6,30.13,NW,320,6.0,6.0,40,0.00,,,0.00,Wunderground v.1.15,2013-01-24 00:30:00,
2013-01-23 19:40:00,3.2,-15.3,30.12,NNW,334,4.0,4.0,41,0.00,,,0.00,Wunderground v.1.15,2013-01-24 00:40:00,
2013-01-23 19:45:00,3.2,-15.3,30.12,NW,325,3.0,4.0,41,0.00,,,0.00,Wunderground v.1.15,2013-01-24 00:45:00,
2013-01-23 19:55:00,3.1,-15.3,30.13,NNW,332,4.0,5.0,41,0.00,,,0.00,Wunderground v.1.15,2013-01-24 00:55:00,
2013-01-23 20:00:00,3.0,-15.4,30.13,NE,39,3.0,3.0,41,0.00,,,0.00,Wunderground v.1.15,2013-01-24 01:00:00,
2013-01-23 20:05:00,2.9,-15.5,30.13,NNW,341,3.0,3.0,41,0.00,,,0.00,Wunderground v.1.15,2013-01-24 01:05:00,
2013-01-23 20:10:00,2.8,-15.6,30.13,NNW,333,4.0,4.0,41,0.00,,,0.00,Wunderground v.1.15,2013-01-24 01:10:00,
2013-01-23 20:15:00,2.7,-15.2,30.13,NW,320,4.0,4.0,42,0.00,,,0.00,Wunderground v.1.15,2013-01-24 01:15:00,
2013-01-23 20:20:00,2.6,-14.9,30.13,WNW,301,3.0,4.0,43,0.00,,,0.00,Wunderground v.1.15,2013-01-24 01:20:00,
2013-01-23 20:30:00,2.5,-14.5,30.12,NW,325,3.0,4.0,44,0.00,,,0.00,Wunderground v.1.15,2013-01-24 01:30:00,
2013-01-23 20:40:00,2.2,-15.2,30.12,NW,326,5.0,6.0,43,0.00,,,0.00,Wunderground v.1.15,2013-01-24 01:40:00,
2013-01-23 20:45:00,2.1,-15.3,30.12,NW,326,5.0,6.0,43,0.00,,,0.00,Wunderground v.1.15,2013-01-24 01:45:00,
2013-01-23 20:55:00,1.9,-15.0,30.11,NW,320,6.0,6.0,44,0.00,,,0.00,Wunderground v.1.15,2013-01-24 01:55:00,
2013-01-23 21:00:00,1.8,-15.6,30.12,NNW,336,5.0,5.0,43,0.00,,,0.00,Wunderground v.1.15,2013-01-24 02:00:00,
2013-01-23 21:05:00,1.8,-15.1,30.12,NNW,327,4.0,5.0,44,0.00,,,0.00,Wunderground v.1.15,2013-01-24 02:05:00,
2013-01-23 21:10:00,1.8,-15.1,30.12,NNW,336,3.0,3.0,44,0.00,,,0.00,Wunderground v.1.15,2013-01-24 02:10:00,
2013-01-23 21:15:00,1.7,-15.2,30.12,NNW,345,3.0,3.0,44,0.00,,,0.00,Wunderground v.1.15,2013-01-24 02:15:00,
2013-01-23 21:20:00,1.7,-15.2,30.12,NNW,339,2.0,2.0,44,0.00,,,0.00,Wunderground v.1.15,2013-01-24 02:20:00,
2013-01-23 21:25:00,1.6,-15.3,30.12,NW,320,2.0,3.0,44,0.00,,,0.00,Wunderground v.1.15,2013-01-24 02:25:00,
2013-01-23 21:30:00,1.6,-14.9,30.12,NNW,332,2.0,2.0,45,0.00,,,0.00,Wunderground v.1.15,2013-01-24 02:30:00,
2013-01-23 21:35:00,1.5,-15.0,30.12,NNW,332,1.0,2.0,45,0.00,,,0.00,Wunderground v.1.15,2013-01-24 02:35:00,
2013-01-23 21:45:00,1.4,-14.6,30.11,WNW,302,2.0,4.0,46,0.00,,,0.00,Wunderground v.1.15,2013-01-24 02:45:00,
2013-01-23 21:50:00,1.3,-14.7,30.11,WNW,303,3.0,3.0,46,0.00,,,0.00,Wunderground v.1.15,2013-01-24 02:50:00,
2013-01-23 21:55:00,1.1,-14.5,30.11,NW,320,2.0,3.0,47,0.00,,,0.00,Wunderground v.1.15,2013-01-24 02:55:00,
2013-01-23 22:00:00,0.9,-14.7,30.11,WNW,285,2.0,2.0,47,0.00,,,0.00,Wunderground v.1.15,2013-01-24 03:00:00,
2013-01-23 22:10:00,0.8,-14.8,30.11,NW,325,3.0,3.0,47,0.00,,,0.00,Wunderground v.1.15,2013-01-24 03:10:00,
2013-01-23 22:15:00,0.8,-14.8,30.11,NW,315,3.0,3.0,47,0.00,,,0.00,Wunderground v.1.15,2013-01-24 03:15:00,
2013-01-23 22:20:00,0.8,-15.2,30.11,NW,305,3.0,3.0,46,0.00,,,0.00,Wunderground v.1.15,2013-01-24 03:20:00,
2013-01-23 22:25:00,0.8,-15.2,30.11,NNW,330,3.0,3.0,46,0.00,,,0.00,Wunderground v.1.15,2013-01-24 03:25:00,
2013-01-23 22:30:00,0.8,-15.2,30.11,North,349,2.0,2.0,46,0.00,,,0.00,Wunderground v.1.15,2013-01-24 03:30:00,
2013-01-23 22:35:00,0.9,-14.7,30.11,NNE,33,1.0,2.0,47,0.00,,,0.00,Wunderground v.1.15,2013-01-24 03:35:00,
2013-01-23 22:40:00,1.1,-14.9,30.11,NW,310,1.0,2.0,46,0.00,,,0.00,Wunderground v.1.15,2013-01-24 03:40:00,
2013-01-23 22:45:00,1.2,-15.2,30.11,NNW,327,2.0,2.0,45,0.00,,,0.00,Wunderground v.1.15,2013-01-24 03:45:00,
2013-01-23 22:50:00,1.2,-15.2,30.11,NNW,331,2.0,3.0,45,0.00,,,0.00,Wunderground v.1.15,2013-01-24 03:50:00,
2013-01-23 23:00:00,1.2,-15.2,30.11,NNW,341,2.0,2.0,45,0.00,,,0.00,Wunderground v.1.15,2013-01-24 04:00:00,
2013-01-23 23:10:00,1.2,-14.4,30.11,NNW,341,1.0,1.0,47,0.00,,,0.00,Wunderground v.1.15,2013-01-24 04:10:00,
2013-01-23 23:15:00,1.1,-14.9,30.11,NNW,341,1.0,2.0,46,0.00,,,0.00,Wunderground v.1.15,2013-01-24 04:15:00,
2013-01-23 23:20:00,1.1,-14.5,30.11,NNW,341,1.0,1.0,47,0.00,,,0.00,Wunderground v.1.15,2013-01-24 04:20:00,
2013-01-23 23:25:00,1.0,-14.6,30.11,NNW,341,0.0,1.0,47,0.00,,,0.00,Wunderground v.1.15,2013-01-24 04:25:00,
2013-01-23 23:30:00,0.9,-14.7,30.11,NNE,31,1.0,1.0,47,0.00,,,0.00,Wunderground v.1.15,2013-01-24 04:30:00,
2013-01-23 23:35:00,0.9,-14.2,30.11,North,351,1.0,3.0,48,0.00,,,0.00,Wunderground v.1.15,2013-01-24 04:35:00,
2013-01-23 23:40:00,0.9,-14.7,30.11,NNE,30,1.0,1.0,47,0.00,,,0.00,Wunderground v.1.15,2013-01-24 04:40:00,
2013-01-23 23:45:00,0.9,-14.7,30.11,North,349,1.0,1.0,47,0.00,,,0.00,Wunderground v.1.15,2013-01-24 04:45:00,
2013-01-23 23:50:00,0.8,-14.8,30.11,NNW,330,1.0,3.0,47,0.00,,,0.00,Wunderground v.1.15,2013-01-24 04:50:00,
2013-01-23 23:55:00,0.8,-14.8,30.10,NNW,330,1.0,3.0,47,0.00,,,0.00,Wunderground v.1.15,2013-01-24 04:55:00,